ELECTRON KICK STAGE R/B (44825 NORAD) Tracking and Keplerian Element Data

This shows tracking and keplerian element data for the satellite.

Feedback or suggestion? Click here.




ElementValue
Catalog44825
NameELECTRON KICK STAGE R/B
Epoch Orbit431
Epoch Day2.88032043
Epoch Year2020
RAAN231.8447
Inclination97.0055
Eccentricity0.0051889
Argument of Perigee152.6122
Mean Anonmoly207.7858
Mean Motion15.64925161
Decay Rate0.00017094
L11 44825U 19084B 20002.88032043 .00017094 00000-0 16388-3 0 9997
L22 44825 97.0055 231.8447 0051889 152.6122 207.7858 15.64925161 4315

Live tracking and technical data element details for ELECTRON KICK STAGE R/B (NORAD 44825). ELECTRON KICK STAGE R/B can be tracked NOW for your location showing map with azimuth and elevation plus other details from your city location.

Track the satellite on the map from your city or location and see movement details for azimuth, elevation, latitude, longitude, range, height, and movement on the map or in text.







IsCatalogInMostPopularTable: catalog: 44825, numindb: 6
Update: records affected: 1



GetName: 44825 ELECTRON KICK STAGE R/B

Hit Count: updated at: Fri, 24 Jan 2020 13:27:30 GMT